Location: ????????
(60.4333°N, 46.4710°E)
Time: 04:44:41
(UTC+00:00)

Cosmos 1842 Rocket - Pass Details

Date: 25 November 2020
Orbit: 606 x 633 km, 82.5° (Epoch: 19 January)

Event Time Altitude Azimuth Distance (km) Brightness Sun altitude
Rises 14:08:44 0° 195° (SSW) 2,859 7.4 -14.2°
Reaches altitude 10° 14:10:56 10° 196° (SSW) 1,959 6.6 -14.4°
Maximum altitude 14:15:17 82° 284° (WNW) 622 3.6 -15.0°
Drops below altitude 10° 14:19:40 10° 13° (NNE) 1,978 5.9 -15.5°
Enters shadow 14:20:28 - 14° (NNE) 2,302 6.2 -15.6°
